Weather in Nyukhcha

Russia / Republic of Karelia     63°55′23″N   36°15′14″E
temp.,
°C
wind,
m/s
gust,
m/s
humid.,
%
clouds,
%
prec.,
mm/h
press.,
hPa
HPBL,
m
6 august, fri
fri600:00+11sse226551 0.0 101920
03:00+11sse226356 0.0 102017
06:00+12ese2264100 0.0 102057
09:00+13e346440 0.0 1021196
12:00+14ene34555 0.0 1021501
15:00+15ene35490 0.0 1020566
18:00+15ne34540 0.0 1020308
21:00+12nne35750 0.0 102072
7 august, sat
sat700:00+11e368320 0.0 102191
03:00+10e34845 0.0 102154
06:00+11e36780 0.0 1022141
09:00+14e47670 0.0 1022330
12:00+16ene58587 0.0 1022565
15:00+18ene58525 0.0 1021756
18:00+17ene48576 0.0 1020533
21:00+14ene41168100 0.0 1020188
8 august, sun
sun800:00+13e5137272 0.0 1020287
03:00+13e51375100 0.0 1020306
06:00+13e61375100 0.0 1019383
09:00+14e61367100 0.0 1019501
12:00+14e51271100 0.1 1019726
15:00+13ese61585100 0.9 1019761
18:00+12e61591100 1.6 1019669
21:00+12e51094100 2.1 1019461
9 august, mon
mon900:00+12e4896100 0.1 1018344
03:00+12e4697100 0.1 1018254
06:00+12e3597100 0.1 1018221
09:00+12e3496100 0.1 1017228
12:00+13e349389 0.1 1018284
15:00+14e3388100 0.1 1019349
18:00+14e3492100 0.0 1019230
21:00+13e3497100 0.0 1019104
10 august, tue
tue1000:00+13ese369829 0.0 101994
03:00+12ese369828 0.0 101898
06:00+13ese4997100 0.0 1017205
09:00+16se489398 0.5 1017378
12:00+18sse2589100 0.3 1017461
15:00+19s238198 1.3 1017639
18:00+20s137326 0.3 1017609
21:00+16sse1185100 0.3 101811